User: anonymous   Login
Location: Caltech
(34.1382°N, 118.1253°W)
Time: 19:20:44
(UTC-07:00)
Language:

Tiros 1 despin weight - Orbit

View from above orbital plane
View from above orbital plane
View from above satellite
View from above satellite

Ground track
Ground track

The orbit data is extracted from the following two-line orbital elements,

1   115U 60002D   17234.28395394 +.00000087 +00000-0 +37789-4 0  9998
2   115 048.1659 186.3333 0034741 028.5135 331.7668 14.83115259038871
Epoch (UTC): 22 August 2017 06:48:53
Eccentricity: 0.0034741
inclination: 48.1659°
perigee height: 595 km
apogee height: 644 km
right ascension of ascending node: 186.3333°
argument of perigee: 28.5135°
revolutions per day: 14.83115259
mean anomaly at epoch: 331.7668°
orbit number at epoch: 3887

The dashed part of the orbit path shows where the satellite is in the earth's shadow,  

DLR